www.pogodaiklimat.ru

Погода и климат >> Архив погоды >> Китай >> Mandal


ПОГОДА в Mandal

  • Прогноз погоды в Mandal
  • Монитор погоды в Mandal
  • Климат города

АРХИВ ПОГОДЫ в Mandal

Время (UTC), дата Ветер
(напр.,м/с)
 
Видим.   Явления Облачность Т
(С)
Тd
(С)
f
(%)
Тe
(С)
Тes
(С)
Комфортность P
(гПа)
Po
(гПа)
Тmin
(С)
Tmax
(С)
R
(мм)
R24
(мм)
S
(см)
00 14.11 СЗ 8 30 км 9/9 1000 м
[]
-4.1 -80.0 1025.2 881.1
03 14.11 СЗ 8 2300 м слабый снег 10/10 1000 м
[]
-5.5 -17.0 40 -14 -14 1028.5 1029.0
06 14.11 С 8 30 км в посл. час снег 9/9 1000 м
[]
-4.4 -12.5 53 -13 -12 1028.0 882.9 -5.7 1
09 14.11 С 3 30 км 4/4 1000 м
[]
-3.7 -80.0 1030.9 1031.0
12 14.11 С 2 30 км 1/1 1000 м
[]
-7.2 -100. 0 -11 -11 1034.9 886.4
15 14.11 С 3 30 км н/о -8.1 -80.0 1037.2 1037.0
18 14.11 З 1 30 км н/о -10.2 -22.4 36 -12 -12 1037.8 888.0 +2.9
21 14.11 штиль 0 30 км ?/? -12.0 -22.0 43 -12 -12 1038.3 1038.0
00 15.11 СЗ 3 30 км ясно -12.1 -22.4 42 -18 -18 1040.5 889.1
03 15.11 СЗ 5 30 км ясно -6.6 -30.5 13 -13 -11 1039.9 1040.0
06 15.11 СЗ 4 30 км ясно -4.8 -56.6 1 -10 -7 1038.8 1090.2 -13.7
09 15.11 СЗ 4 30 км ясно -5.9 -80.0 1040.3 1040.0
12 15.11 С 3 30 км ясно -10.2 -80.0 1042.9 890.4
15 15.11 З 3 30 км ?/? -10.7 -80.0 1041.5 839.6
18 15.11 З 3 30 км ?/? -11.8 -65.8 0 1039.4 888.9 -4.5
21 15.11 З 1 30 км н/о -13.5 -53.3 2 -16 -16 1039.0 1039.0
00 16.11 З 2 30 км ясно -12.5 -58.3 1 -17 -17 1039.9 1087.9
03 16.11 З 7 30 км ясно -3.2 -70.0 0 1036.0 1036.0
06 16.11 З 7 30 км ясно -0.6 -80.0 1032.6 884.1 -14.5
09 16.11 З 4 30 км 9/9
[]
-2.4 -80.0 1032.4 834.3
12 16.11 З 3 30 км 9/9
[]
-6.3 -80.0 1034.4 884.0
15 16.11 З 5 30 км н/о -6.6 -80.0 1030.3 1030.0
18 16.11 З 7 30 км ?/? -6.4 -80.0 1027.1 1078.1 0.0
21 16.11 З 4 30 км ?/? -8.3 -80.0 1027.7 1028.0
00 17.11 З 3 30 км 3/3
[]
-9.8 -80.0 1029.1 880.2
03 17.11 З 11
{17}
30 км 5/5
[]
-3.2 -80.0 1026.8 829.8
06 17.11 З 10
{17}
29 км 6/6
[]
0.0 -80.0 1023.6 877.9 -9.8
09 17.11 З 9 15 км 3/3
[]
-1.6 -80.0 1024.8 1025.0
12 17.11 З 7
{17}
23 км ясно -4.6 -80.0 1027.3 879.1
15 17.11 З 6 30 км ?/? -6.7 -80.0 1027.3 1027.0
18 17.11 З 6 30 км н/о -8.4 -80.0 1027.2 880.5 +0.4
21 17.11 З 3 28 км н/о -10.8 -80.0 1027.9 1028.0
00 18.11 З 3 21 км 3/3
[]
-10.9 -80.0 1029.3 880.5
03 18.11 З 5 23 км ясно -5.6 -80.0 1028.8 830.7
06 18.11 З 5 30 км ясно -2.2 -80.0 1026.3 879.2 -11.2
09 18.11 З 3 30 км ясно -2.3 -80.0 1026.1 1026.0
12 18.11 З 2 30 км ясно -7.3 -80.0 1027.4 878.2
15 18.11 штиль 0 30 км н/о -9.6 -80.0 1025.6 828.1
18 18.11 З 2 30 км ?/? -8.5 -58.0 1 1022.4 875.8 -1.3
21 18.11 З 1 30 км ?/? -9.5 -47.0 3 -11 -11 1021.4 1021.0
00 19.11 З 4 30 км ясно -7.6 -80.0 1023.0 875.3
03 19.11 З 8 30 км ясно -3.0 -80.0 1023.7 826.6
06 19.11 З 8 27 км ясно -0.3 -80.0 1022.0 876.0 -10.8
09 19.11 СЗ 6 30 км 1/1
[]
-2.4 -80.0 1024.2 1024.0
12 19.11 С 1 30 км 3/3
[]
-5.3 -80.0 1026.6 878.9
15 19.11 СЗ 1 30 км ?/? -6.7 -80.0 1026.7 1027.0
18 19.11 С 1 30 км н/о -6.8 -80.0 1025.9 879.7 +0.1
21 19.11 С 3 30 км ?/? -10.2 -80.0 1028.1 1028.0
00 20.11 С 5 30 км ясно -10.9 -80.0 1031.0 881.8
03 20.11 СЗ 5 30 км ясно -7.5 -80.0 1033.0 1033.0
06 20.11 СЗ 7 30 км ясно -5.4 -80.0 1031.8 883.5 -11.9
09 20.11 СЗ 5 30 км ясно -6.8 -80.0 1033.6 1034.0
12 20.11 З 3 30 км ясно -10.3 -80.0 1036.8 885.5
15 20.11 З 2 30 км ?/? -11.0 -80.0 1036.7 1037.0
18 20.11 З 3 30 км ?/? -11.8 -80.0 1034.7 884.7 -5.2
21 20.11 З 5 30 км ?/? -12.3 -80.0 1033.6 1034.0

 

Местоположение метеостанции Mandal (Китай): широта 42.53 долгота 110.13 высота над уровнем моря 1223 м.

В архиве по умолчанию представлена погода в Mandal за последнюю неделю. Архивные данные за месяц целиком и за предыдущие месяцы, начиная с января 2011 года, Вы можете получить, выбрав интересующий диапазон дат из раскрывающегося списка и нажав кнопку "Ввод!".


*Определитесь, кто Вы:
робот инопланетянин человек

Внимание! Время в таблицах - всемирное. Для получения местного времени необходимо прибавить поправку, которая в Mandal равна 8 ч.

Смотрите также архив погоды в соседних городах и на ближайших метеорологических станциях:

Погода в Bailing-Miao Zhen (Китай) (96 км)
Погода в Hatanbulag (Монголия) (104 км)
Погода в Hai Liu Zhen (Китай) (171 км)
Погода в Zamyn-Uud (Монголия) (196 км)
Погода в Erenhot (Китай) (196 км)
Погода в Zhurihe Zhen (Китай) (228 км)
Погода в Hohhot (Китай) (230 км)
Погода в Hanbogd (Монголия) (253 км)
Погода в Sainshand (Монголия) (264 км)
Погода в Jining (Китай) (295 км)

Пояснения к столбцам:

Ветер - указаны скорость ветра в м/с - средняя за 10 мин, порывы в срок и между сроками (в фигурных скобках) и направление, откуда дует ветер: С - северный, СВ - северо-восточный, В - восточный, ЮВ - юго-восточный, Ю - южный, ЮЗ - юго-западный, З - западный, СЗ - северо-западный.
Видимость - горизонтальная дальность видимости в метрах или километрах. При видимости от 1 до 10 км при отсутствии осадков обычно наблюдается дымка, при ухудшении видимости до 1 км и менее - туман. В сухую погоду видимость может ухудшаться дымом, пылью или мглою.
Явления - указаны атмосферные явления, наблюдавшиеся в срок или в последний час перед сроком; фигурными скобками обозначены явления, наблюдавшиеся между сроками (за 1-3 часа до срока); квадратными скобками обозначены град или гололедные отложения с указанием их диаметра в мм.
Облачность - указаны через наклонную черту общая и нижняя облачность в баллах и высота нижней границы облаков в метрах; квадратными скобками обозначены формы облаков: Ci - перистые, Cs - перисто-слоистые, Cc - перисто-кучевые, Ac - высококучевые, As - высокослоистые, Sc - слоисто-кучевые, Ns - слоисто-дождевые, Cu - кучевые, Cb - кучево-дождевые. Подробнее классификацию облаков см. в Атласе облаков (PDF).
T - Температура воздуха - температура, измеренная на высоте 2 м над землей.
Td - Температура точки росы - температура, при понижении до которой содержащийся в воздухе водяной пар достигнет насыщения.
f - Относительная влажность воздуха - влажноcть воздуха, измеренная на высоте 2 м над землей.
Te - Эффективная температура - температура, которую ощущает одетый по сезону человек в тени. Характеристика душности погоды. При расчете учитывается влияние влажности воздуха и скорости ветра на теплоощущения человека.
Tes - Эффективная температура на солнце - температура, которую ощущает человек, с поправкой на солнечный нагрев. Характеристика знойности погоды. Зависит от высоты солнца над горизонтом, облачности и скорости ветра. Ночью, в пасмурную погоду, а также при ветре 12 м/с и более поправка равна нулю.
P - Атмосферное давление - приведенное к уровню моря атмосферное давление.
Po - Атмосферное давление - измеренное на уровне метеостанции атмосферное давление.
Tmin - Минимальная температура - минимум температуры воздуха на высоте 2 м над землей.
Tmax - Максимальная температура - максимум температуры воздуха на высоте 2 м над землей.
R - Количество осадков - Количество выпавших осадков за период времени, мм. При наведении курсора мыши на число - период времени, за который выпало указанное количество осадков.
R24 - Количество осадков - Количество выпавших осадков за 24 часа, мм.
S - Снежный покров - Высота снежного покрова, см. При наведении курсора мыши на число - состояние снежного покрова и степень покрытия местности в баллах.